Lapse_Rate
6.7 6.7 6.7 7.0 6.8 6.8 6.5 6.4 6.3 6.4 6.3 6.2 6.0 6.0 5.8 5.8 5.7 5.5 5.9 5.8 5.7 5.6 5.6 5.8 5.8 5.7 5.7 5.7 5.8 5.9 6.0 6.1
6.7 6.4 6.4 6.5 6.4 6.3 6.2 6.1 6.0 6.0 5.9 5.9 5.8 5.7 5.5 5.4 5.4 5.0 5.3 5.0 5.0 4.8 5.0 4.9 5.2 5.4 5.6 5.6 5.6 5.7 5.9 5.8
6.5 6.3 6.4 6.4 6.3 6.2 6.1 6.0 6.0 5.9 5.9 5.5 5.5 5.4 5.4 5.2 5.3 5.2 5.1 5.1 4.8 4.9 4.9 5.0 5.2 5.4 5.5 5.4 5.2 5.2 5.4 5.5
6.4 6.5 6.6 6.4 6.5 6.4 6.2 6.2 6.0 5.7 5.8 5.7 5.4 5.4 5.7 5.6 5.3 4.9 4.6 4.1 4.6 5.0 5.1 5.1 5.1 5.2 5.4 5.4 5.1 4.7 4.7 5.1
6.6 6.4 6.4 6.3 6.4 6.7 6.7 6.3 6.1 5.9 5.6 5.8 6.2 5.7 5.5 5.5 5.5 5.2 4.6 4.0 4.1 4.2 4.3 4.1 3.8 4.2 4.9 5.0 5.0 4.9 4.4 4.5
6.8 6.7 6.6 6.6 6.5 6.3 6.3 6.3 6.3 6.1 5.9 5.7 5.7 6.2 5.9 5.7 5.6 5.3 4.9 4.9 4.9 4.9 4.7 5.0 4.9 4.7 4.9 5.0 5.2 5.5 5.2 4.8
6.5 6.8 6.1 6.0 5.7 5.5 6.0 6.0 6.0 5.9 5.7 5.6 5.5 5.5 5.8 5.6 5.6 5.7 5.8 5.8 5.7 5.3 5.2 5.6 5.0 5.2 5.2 5.2 5.4 5.4 5.5 5.4
5.3 5.2 5.1 5.2 5.4 5.6 5.3 5.2 5.3 5.5 5.6 5.8 5.4 5.3 5.3 5.6 5.7 5.6 5.6 5.2 5.1 4.9 5.0 5.4 5.2 5.3 5.2 5.4 5.6 5.7 5.7 5.5
5.6 5.3 4.9 4.9 5.0 5.2 5.3 5.1 5.0 5.1 4.9 4.9 5.1 5.1 5.2 5.5 5.9 5.9 5.6 5.4 5.3 5.4 5.7 6.2 5.5 5.9 6.0 5.9 6.0 6.1 5.8 5.6
5.6 5.2 5.0 4.9 5.0 5.2 5.1 5.3 5.7 5.8 6.0 5.7 5.4 5.3 5.3 5.5 5.9 5.8 5.6 5.3 5.4 5.8 6.2 6.3 6.3 6.1 5.8 5.7 5.7 5.6 5.5 5.4
5.7 5.5 5.3 5.2 5.7 5.7 5.5 5.4 6.0 6.3 6.3 6.1 6.0 5.9 5.9 5.9 5.9 5.8 5.5 5.6 5.8 6.2 6.4 6.2 5.7 5.5 5.4 5.2 5.2 5.1 5.0 5.0
5.7 5.5 5.4 5.4 5.7 5.7 5.5 5.4 6.0 6.3 6.4 6.0 6.3 6.3 6.0 5.8 5.9 5.8 6.0 5.9 6.0 6.2 5.9 5.7 5.3 5.1 5.1 5.1 5.0 4.8 4.6 4.5
5.8 5.9 5.7 5.7 5.7 5.8 5.6 5.8 5.9 6.2 6.1 6.3 6.2 6.0 5.6 5.5 5.7 5.9 6.1 5.7 5.9 6.0 5.6 5.3 5.0 5.0 4.8 4.7 4.6 4.5 4.3 4.2
6.0 6.0 5.6 5.5 5.8 5.9 6.1 6.1 5.9 5.9 6.0 5.6 5.5 5.5 5.4 5.5 5.6 5.5 5.6 6.0 5.9 5.5 5.1 4.9 4.8 4.7 4.6 4.5 4.4 4.3 4.4 4.5
5.5 6.0 5.8 5.9 5.8 6.0 6.1 5.9 5.8 5.7 5.4 5.2 5.3 5.3 5.4 5.5 5.3 5.7 5.9 5.6 5.3 5.0 4.9 4.9 4.8 4.8 4.8 4.8 4.8 4.9 4.9 4.9
6.4 5.9 5.9 6.0 6.0 6.2 6.4 6.3 5.6 5.1 4.9 5.1 4.8 5.0 5.2 5.3 5.7 5.5 5.3 5.1 4.8 4.9 4.9 4.9 5.0 4.9 5.1 5.1 5.1 5.2 5.5 5.6
6.1 6.0 5.9 6.3 6.1 6.2 6.4 5.6 5.0 4.9 5.0 5.2 5.1 5.0 5.2 5.5 5.4 5.2 5.0 4.9 4.8 4.9 4.9 5.0 5.2 5.4 5.6 5.6 5.7 5.9 6.2 6.5
5.5 5.7 5.9 5.8 6.0 6.0 5.9 5.1 5.1 5.4 5.3 5.2 5.4 5.7 5.9 5.6 5.3 5.3 5.1 4.8 5.0 5.0 5.2 5.4 5.5 5.8 6.1 6.2 6.5 6.4 6.6 6.5
5.7 6.0 5.8 6.0 6.1 6.1 5.7 5.1 5.3 5.5 5.6 5.9 6.1 5.8 5.6 5.4 5.3 5.0 4.9 4.9 5.1 5.3 5.5 5.7 5.9 6.5 6.7 6.6 6.5 6.3 5.9 5.7
Wind_Speed
12 11 7 7 4 4 4 4 5 4 3 3 3 4 5 4 7 9 11 9 5 4 3 5 4 2 1 2 2 3 3 4
2 7 8 7 3 5 5 5 5 3 3 2 3 3 3 3 5 8 10 7 10 5 4 1 1 1 2 2 2 3 4 4
7 5 6 5 5 6 7 7 7 5 4 4 4 4 5 5 5 9 9 9 7 6 5 3 1 2 3 4 3 2 2 4
6 1 2 5 7 7 7 8 8 7 9 5 4 3 2 2 3 3 6 14 11 9 7 4 3 2 2 2 3 5 4 3
3 1 3 4 8 7 8 7 8 8 8 7 8 5 6 6 5 5 8 14 10 10 6 4 3 2 3 3 3 2 3 4
6 7 6 1 2 5 6 7 8 8 7 8 7 6 5 3 3 4 2 3 2 1 1 3 3 3 3 4 5 5 4 4
6 6 6 6 1 4 5 7 10 9 9 8 9 9 6 4 4 1 0 2 4 6 8 7 6 5 5 5 5 6 6 6
4 7 7 5 6 5 6 8 11 10 8 9 9 8 8 7 5 3 3 2 1 3 5 6 4 4 5 5 6 6 7 7
7 6 4 5 6 6 7 8 9 10 12 12 8 8 5 4 3 2 3 2 1 4 3 2 4 5 5 6 5 6 7 7
7 6 5 5 5 6 8 9 12 11 9 7 6 6 6 4 3 6 2 1 2 4 5 4 5 6 6 6 5 7 8 8
7 6 7 8 11 9 10 8 9 9 10 5 3 6 6 6 6 5 2 3 3 4 4 6 6 7 7 7 6 7 9 8
5 4 5 8 9 11 14 9 7 6 6 3 6 5 6 5 4 3 4 4 5 6 6 6 8 9 8 8 9 10 11 12
10 10 9 9 9 13 17 9 6 3 5 6 5 5 4 5 5 3 4 5 7 6 8 9 10 10 10 10 11 12 12 13
15 16 10 10 14 17 18 10 5 3 5 5 4 3 3 3 1 2 5 8 6 8 9 9 10 10 11 11 12 12 13 13
16 12 12 12 15 16 13 11 3 2 3 4 6 5 5 3 3 3 5 6 7 8 9 10 10 11 12 12 13 13 12 12
17 18 16 16 16 16 9 12 1 3 2 4 2 4 4 7 3 5 5 6 8 9 10 10 9 9 9 10 8 9 10 12
19 18 18 18 15 12 11 10 3 2 2 6 7 8 5 2 4 4 6 7 7 8 8 9 10 9 11 12 8 8 9 11
16 15 16 17 13 8 8 9 9 7 6 4 5 7 5 3 4 6 6 7 7 7 8 8 9 10 12 16 17 10 11 13
19 15 15 12 7 6 6 7 5 2 3 7 9 4 2 4 5 6 6 6 7 8 8 7 9 9 19 21 22 15 13 15
Wind_Direction
199 186 179 156 174 192 213 190 211 195 202 245 158 182 235 158 206 182 173 180 202 269 182 165 202 254 121 57 303 305 297 287
17 139 133 146 193 179 236 235 224 172 234 230 237 211 227 208 225 176 184 209 196 216 271 36 201 247 13 250 252 325 319 298
33 90 140 160 204 233 208 230 225 188 222 219 232 216 222 203 211 178 186 225 226 214 222 216 255 57 331 306 278 277 270 297
16 37 292 182 205 218 245 230 228 207 203 246 229 213 292 299 233 201 191 210 216 230 238 222 232 208 250 311 316 311 288 316
30 133 237 243 217 202 212 250 237 232 198 212 247 231 214 230 236 239 228 196 210 213 239 259 246 223 237 255 271 314 314 295
7 352 356 264 346 199 208 235 252 250 242 212 214 229 244 250 266 253 180 150 167 178 321 334 314 345 360 340 328 314 297 286
352 327 342 347 344 178 205 233 255 252 247 241 207 214 227 249 235 335 213 97 64 54 46 40 21 3 351 346 323 311 300 293
10 332 329 350 337 315 229 223 238 249 251 250 236 206 206 229 251 222 211 110 78 54 48 24 353 339 321 306 296 287 284 280
330 327 348 337 347 322 289 285 270 245 240 239 217 206 195 201 212 134 66 71 150 79 66 264 288 300 283 272 271 271 271 272
346 352 353 355 337 310 292 303 300 290 294 264 217 191 171 136 125 110 112 357 308 46 0 315 279 263 265 267 267 268 263 267
349 354 4 359 341 331 325 287 290 303 312 312 107 99 100 84 74 78 66 19 3 269 309 262 272 271 268 266 269 269 268 269
4 359 350 357 341 346 330 308 314 313 332 348 88 94 109 103 109 118 46 338 324 282 276 280 277 276 275 275 271 270 268 270
9 350 335 352 350 339 324 303 302 307 316 92 104 103 119 141 162 171 194 235 261 273 275 274 279 280 280 276 276 276 275 275
351 332 359 351 341 336 312 314 309 355 97 113 112 153 190 199 333 309 263 257 288 278 284 286 285 284 283 280 278 278 276 274
340 358 346 341 333 315 309 316 299 102 148 153 162 187 218 267 235 318 270 270 278 292 289 289 287 285 282 282 284 281 277 276
356 337 329 331 317 310 326 315 281 151 202 196 220 27 344 262 232 250 282 290 284 282 287 283 286 287 283 284 302 304 297 291
335 322 330 313 317 313 335 324 308 151 68 16 342 286 285 283 268 299 283 275 290 286 287 292 289 292 303 309 316 311 301 292
324 315 305 298 329 359 339 356 26 26 15 329 297 275 257 280 300 283 291 289 287 293 296 297 299 303 311 327 319 304 293 282
310 305 299 324 347 342 5 346 329 27 300 266 241 237 298 310 290 294 290 299 302 303 299 306 315 319 315 307 299 294 285 276